Location: Buch
(49.7331°N, 12.1098°E)
Time: 00:35:23
(UTC+00:00)

CZ-2C R/B - Pass Details

Date: 12 May 2021
Orbit: 640 x 703 km, 98.3° (Epoch: 18 June)

Event Time Altitude Azimuth Distance (km) Brightness Sun altitude
Rises 20:03:41 0° 15° (NNE) 2,974 7.5 -10.7°
Reaches altitude 10° 20:05:54 10° 18° (NNE) 2,065 6.6 -10.9°
Maximum altitude 20:10:23 73° 103° (ESE) 691 3.6 -11.4°
Drops below altitude 10° 20:14:56 10° 189° (S) 2,083 5.9 -11.9°
Enters shadow 20:16:21 - 190° (S) 2,667 6.4 -12.1°
